DECAYED

THORAD AGENA D DEB, 9668 (Decayed)

Orbit data source: Space-Track

THORAD AGENA D DEB, 9668 was space debris in SSO originally from a launch on Wed, 08 Apr 1970 UTC launched from the Air Force Western Test Range (AFWTR). Debris objects in space refer to the collection of defunct objects orbiting the Earth. Examples of debris include non-operational satellites, rocket bodies, and fragments generated from explosions, collisions, or faulty payload assembly.

Not visible in the next 10 days
Identifier
9668, 1970-025NM
Orbit
Decayed
Country
Flag of USUS
Related business
Manufacturer
Unknown
Mission
Decayed spacecraft
Bus & Motor
Unknown
Mass
Unknown
Launch date (UTC)
1970-04-08 (56 years ago)
Launch vehicle
Unknown
Launch site
Air Force Western Test Range (AFWTR)
Object type
Payload
Rocket body
Debris
Shape & HBR
Unknown shape, 0.1 m
Radar Cross Section
Medium (>0.1 m² and <1 m²)

Expand to show TLE details & history
Last TLE update: 7 months ago

TLE from 7 months ago
0 THORAD AGENA D DEB
1  9668U 70025NM  26052.89495377  .05868375  10242-0  13187-1 0  9992
2  9668 100.0549  26.1605 0019207 162.4336 197.7604 16.04660282565683
Epoch: 2026-02-21T21:28Z
TLE epoch observation values (Epoch: 2026-02-21T21:28:44.005Z)
Latitude
-0.00004°
Longitude
-87.83383°
Altitude
276.794 km
Speed
7.734 km/s
True Right ascension
01h 44m 38s
True Declination
0° 00' 00"
Sunlit
Object was in daylight at epoch
Visualization orbit readout
Latitude
Unknown
Longitude
Unknown
Altitude
Unknown
Speed
Unknown
Apparent Right ascension
Unknown
Apparent Declination
Unknown
Sunlit
N/A
Visualization observer readout
Local Sidereal Time
20:25:52
Azimuth
Unknown
Elevation
Unknown
Doppler factor
Unknown
Orbital elements
Apogee altitude
271.271 km
Perigee altitude
245.777 km
Semi-major axis
6,636.661 km
Eccentricity
0.00192
Inclination
100.0549°
RAAN
26.1605°
Arg. of periapsis
162.4336°
True anomaly
197.69342°
Mean anomaly
197.7604°
Eccentric anomaly
197.72689°
Mean motion
4.01438 °/min
Orbital period
89.68 mins
BSTAR
0.013187
Loading maneuver chart data...
Computing Atmospheric mass density...

Documentation

Showing up to 5 results
|